Time,TemperatureF,DewpointF,PressureIn,WindDirection,WindDirectionDegrees,WindSpeedMPH,WindSpeedGustMPH,Humidity,HourlyPrecipIn,Conditions,Clouds,dailyrainin,SoftwareType,DateUTC
2013-02-06 00:00:00,27.0,23.9,28.94,West,270,0.0,0.0,88,0.00,,,0.00,WUHU216WMR100,2013-02-06 05:00:00,
2013-02-06 00:05:00,27.0,23.9,28.94,West,270,0.0,0.0,88,0.00,,,0.00,WUHU216WMR100,2013-02-06 05:05:00,
2013-02-06 00:10:00,27.0,23.9,28.94,West,270,0.0,0.0,88,0.00,,,0.00,WUHU216WMR100,2013-02-06 05:10:00,
2013-02-06 00:15:00,27.0,23.9,28.94,West,270,0.0,0.0,88,0.00,,,0.00,WUHU216WMR100,2013-02-06 05:15:00,
2013-02-06 00:20:00,27.0,23.9,28.94,West,270,0.0,0.0,88,0.00,,,0.00,WUHU216WMR100,2013-02-06 05:20:00,
2013-02-06 00:25:00,27.0,24.1,28.94,West,270,0.0,0.0,89,0.00,,,0.00,WUHU216WMR100,2013-02-06 05:25:00,
2013-02-06 00:30:00,27.1,24.2,28.94,West,270,0.0,0.0,89,0.00,,,0.00,WUHU216WMR100,2013-02-06 05:30:00,
2013-02-06 00:35:00,27.1,24.2,28.94,West,270,0.0,0.0,89,0.00,,,0.00,WUHU216WMR100,2013-02-06 05:35:00,
2013-02-06 00:40:00,27.3,24.4,28.94,NW,315,0.0,1.6,89,0.00,,,0.00,WUHU216WMR100,2013-02-06 05:40:00,
2013-02-06 00:45:00,27.3,24.4,28.94,WNW,292,0.9,3.6,89,0.00,,,0.00,WUHU216WMR100,2013-02-06 05:45:00,
2013-02-06 00:50:00,27.5,24.6,28.94,NNW,337,0.0,3.6,89,0.00,,,0.00,WUHU216WMR100,2013-02-06 05:50:00,
2013-02-06 00:55:00,27.5,24.6,28.94,WSW,247,1.1,1.6,89,0.00,,,0.00,WUHU216WMR100,2013-02-06 05:55:00,
2013-02-06 01:00:00,27.7,24.8,28.94,WSW,247,0.0,1.6,89,0.00,,,0.00,WUHU216WMR100,2013-02-06 06:00:00,
2013-02-06 01:05:00,27.9,25.0,28.94,WSW,247,0.9,2.0,89,0.00,,,0.00,WUHU216WMR100,2013-02-06 06:05:00,
2013-02-06 01:11:00,27.9,25.0,28.94,WNW,292,2.0,2.5,89,0.00,,,0.00,WUHU216WMR100,2013-02-06 06:11:00,
2013-02-06 01:16:00,27.9,25.0,28.94,WSW,247,1.1,3.1,89,0.00,,,0.00,WUHU216WMR100,2013-02-06 06:16:00,
2013-02-06 01:21:00,27.9,25.0,28.97,WNW,292,0.9,3.1,89,0.00,,,0.00,WUHU216WMR100,2013-02-06 06:21:00,
2013-02-06 01:26:00,28.0,25.1,28.97,West,270,1.6,2.9,89,0.00,,,0.00,WUHU216WMR100,2013-02-06 06:26:00,
2013-02-06 01:31:00,28.0,25.1,28.97,WNW,292,1.3,2.5,89,0.00,,,0.00,WUHU216WMR100,2013-02-06 06:31:00,
2013-02-06 01:36:00,28.0,25.1,28.94,SW,225,1.1,3.6,89,0.00,,,0.00,WUHU216WMR100,2013-02-06 06:36:00,
2013-02-06 01:41:00,28.0,25.1,28.94,WNW,292,1.6,3.6,89,0.00,,,0.00,WUHU216WMR100,2013-02-06 06:41:00,
2013-02-06 01:46:00,28.0,25.1,28.94,WNW,292,1.3,2.7,89,0.00,,,0.00,WUHU216WMR100,2013-02-06 06:46:00,
2013-02-06 01:51:00,28.2,25.3,28.97,NNW,337,2.2,2.7,89,0.00,,,0.00,WUHU216WMR100,2013-02-06 06:51:00,
2013-02-06 01:56:00,28.2,25.3,28.97,WNW,292,2.2,2.7,89,0.00,,,0.00,WUHU216WMR100,2013-02-06 06:56:00,
2013-02-06 02:01:00,28.2,25.3,28.97,NNW,337,0.0,2.7,89,0.00,,,0.00,WUHU216WMR100,2013-02-06 07:01:00,
2013-02-06 02:06:00,28.4,25.5,28.97,WSW,247,0.9,2.9,89,0.00,,,0.00,WUHU216WMR100,2013-02-06 07:06:00,
2013-02-06 02:11:00,28.4,25.3,28.97,WSW,247,0.9,4.9,88,0.00,,,0.00,WUHU216WMR100,2013-02-06 07:11:00,
2013-02-06 02:16:00,28.4,25.3,28.97,WNW,292,0.0,4.9,88,0.00,,,0.00,WUHU216WMR100,2013-02-06 07:16:00,
2013-02-06 02:21:00,28.6,25.2,28.97,NW,315,1.3,2.9,87,0.00,,,0.00,WUHU216WMR100,2013-02-06 07:21:00,
2013-02-06 02:26:00,28.4,25.3,28.97,WNW,292,0.9,3.1,88,0.00,,,0.00,WUHU216WMR100,2013-02-06 07:26:00,
2013-02-06 02:31:00,28.6,25.2,28.97,NNW,337,0.0,3.1,87,0.00,,,0.00,WUHU216WMR100,2013-02-06 07:31:00,
2013-02-06 02:36:00,28.6,25.2,28.97,North,0,2.5,3.1,87,0.00,,,0.00,WUHU216WMR100,2013-02-06 07:36:00,
2013-02-06 02:41:00,28.6,25.2,28.97,WNW,292,0.0,3.1,87,0.00,,,0.00,WUHU216WMR100,2013-02-06 07:41:00,
2013-02-06 02:46:00,28.6,25.2,28.97,NNW,337,0.0,2.9,87,0.00,,,0.00,WUHU216WMR100,2013-02-06 07:46:00,
2013-02-06 02:51:00,28.6,24.9,28.97,West,270,2.7,4.0,86,0.00,,,0.00,WUHU216WMR100,2013-02-06 07:51:00,
2013-02-06 02:56:00,28.6,24.9,28.97,WNW,292,2.7,4.0,86,0.00,,,0.00,WUHU216WMR100,2013-02-06 07:56:00,
2013-02-06 03:01:00,28.6,24.9,28.97,West,270,1.1,3.1,86,0.00,,,0.00,WUHU216WMR100,2013-02-06 08:01:00,
2013-02-06 03:06:00,28.6,24.9,29.00,WNW,292,0.0,2.9,86,0.00,,,0.00,WUHU216WMR100,2013-02-06 08:06:00,
2013-02-06 03:11:00,28.6,24.9,29.00,WNW,292,1.1,4.0,86,0.00,,,0.00,WUHU216WMR100,2013-02-06 08:11:00,
2013-02-06 03:16:00,28.8,25.1,29.00,WNW,292,2.2,4.0,86,0.00,,,0.00,WUHU216WMR100,2013-02-06 08:16:00,
2013-02-06 03:21:00,28.8,25.1,29.00,WNW,292,0.0,3.6,86,0.00,,,0.00,WUHU216WMR100,2013-02-06 08:21:00,
2013-02-06 03:26:00,28.8,25.1,29.00,NW,315,1.3,3.6,86,0.00,,,0.00,WUHU216WMR100,2013-02-06 08:26:00,
2013-02-06 03:31:00,28.8,25.1,29.00,NNW,337,2.2,4.0,86,0.00,,,0.00,WUHU216WMR100,2013-02-06 08:31:00,
2013-02-06 03:36:00,28.8,25.1,29.00,North,0,1.6,4.0,86,0.00,,,0.00,WUHU216WMR100,2013-02-06 08:36:00,
2013-02-06 03:41:00,28.9,25.2,29.00,West,270,1.1,3.6,86,0.00,,,0.00,WUHU216WMR100,2013-02-06 08:41:00,
2013-02-06 03:46:00,28.9,25.2,29.00,North,0,0.9,2.2,86,0.00,,,0.00,WUHU216WMR100,2013-02-06 08:46:00,
2013-02-06 03:51:00,28.9,25.2,29.03,North,0,0.0,4.3,86,0.00,,,0.00,WUHU216WMR100,2013-02-06 08:51:00,
2013-02-06 03:56:00,29.1,25.1,29.03,West,270,1.6,4.3,85,0.00,,,0.00,WUHU216WMR100,2013-02-06 08:56:00,
2013-02-06 04:01:00,29.1,25.1,29.03,North,0,2.2,3.6,85,0.00,,,0.00,WUHU216WMR100,2013-02-06 09:01:00,
2013-02-06 04:06:00,29.1,25.1,29.00,WNW,292,1.6,4.3,85,0.00,,,0.00,WUHU216WMR100,2013-02-06 09:06:00,
2013-02-06 04:11:00,29.1,25.1,29.00,West,270,2.7,4.3,85,0.00,,,0.00,WUHU216WMR100,2013-02-06 09:11:00,
2013-02-06 04:16:00,29.1,25.1,29.00,WNW,292,3.4,4.3,85,0.00,,,0.00,WUHU216WMR100,2013-02-06 09:16:00,
2013-02-06 04:21:00,29.3,25.0,29.03,WNW,292,3.1,4.3,84,0.00,,,0.00,WUHU216WMR100,2013-02-06 09:21:00,
2013-02-06 04:26:00,29.3,25.0,29.03,NNW,337,1.3,4.7,84,0.00,,,0.00,WUHU216WMR100,2013-02-06 09:26:00,
2013-02-06 04:31:00,29.5,25.2,29.03,WSW,247,2.9,5.6,84,0.00,,,0.00,WUHU216WMR100,2013-02-06 09:31:00,
2013-02-06 04:36:00,29.5,25.0,29.03,WSW,247,3.1,5.6,83,0.00,,,0.00,WUHU216WMR100,2013-02-06 09:36:00,
2013-02-06 04:41:00,29.5,25.0,29.03,NNW,337,1.1,5.6,83,0.00,,,0.00,WUHU216WMR100,2013-02-06 09:41:00,
2013-02-06 04:46:00,29.5,25.0,29.03,West,270,2.2,7.4,83,0.00,,,0.00,WUHU216WMR100,2013-02-06 09:46:00,
2013-02-06 04:51:00,29.7,24.9,29.03,WNW,292,4.3,7.6,82,0.00,,,0.00,WUHU216WMR100,2013-02-06 09:51:00,
2013-02-06 04:56:00,29.7,24.6,29.03,NNW,337,3.6,7.6,81,0.00,,,0.00,WUHU216WMR100,2013-02-06 09:56:00,
2013-02-06 05:01:00,29.7,24.3,29.03,WNW,292,5.4,7.8,80,0.00,,,0.00,WUHU216WMR100,2013-02-06 10:01:00,
2013-02-06 05:06:00,29.7,24.0,29.06,NW,315,3.1,7.8,79,0.00,,,0.00,WUHU216WMR100,2013-02-06 10:06:00,
2013-02-06 05:11:00,29.7,23.7,29.06,WSW,247,3.8,6.0,78,0.00,,,0.00,WUHU216WMR100,2013-02-06 10:11:00,
2013-02-06 05:16:00,29.7,23.7,29.06,West,270,3.6,6.0,78,0.00,,,0.00,WUHU216WMR100,2013-02-06 10:16:00,
2013-02-06 05:21:00,29.7,23.7,29.06,WNW,292,3.8,5.8,78,0.00,,,0.00,WUHU216WMR100,2013-02-06 10:21:00,
2013-02-06 05:26:00,29.7,23.7,29.06,West,270,3.4,5.8,78,0.00,,,0.00,WUHU216WMR100,2013-02-06 10:26:00,
2013-02-06 05:31:00,29.7,23.7,29.06,WNW,292,2.7,5.8,78,0.00,,,0.00,WUHU216WMR100,2013-02-06 10:31:00,
2013-02-06 05:36:00,29.7,23.4,29.06,SSW,202,3.6,6.3,77,0.00,,,0.00,WUHU216WMR100,2013-02-06 10:36:00,
2013-02-06 05:41:00,29.7,23.7,29.06,NNW,337,2.9,6.3,78,0.00,,,0.00,WUHU216WMR100,2013-02-06 10:41:00,
2013-02-06 05:46:00,29.7,23.7,29.06,NW,315,2.2,4.0,78,0.00,,,0.00,WUHU216WMR100,2013-02-06 10:46:00,
2013-02-06 05:51:00,29.5,23.5,29.06,NNW,337,2.0,4.0,78,0.00,,,0.00,WUHU216WMR100,2013-02-06 10:51:00,
2013-02-06 05:56:00,29.7,23.1,29.06,NNW,337,3.1,7.8,76,0.00,,,0.00,WUHU216WMR100,2013-02-06 10:56:00,
2013-02-06 06:01:00,29.7,23.1,29.06,NNW,337,2.5,7.8,76,0.00,,,0.00,WUHU216WMR100,2013-02-06 11:01:00,
2013-02-06 06:06:00,29.8,22.6,29.09,NNW,337,3.1,6.5,74,0.00,,,0.00,WUHU216WMR100,2013-02-06 11:06:00,
2013-02-06 06:11:00,29.7,22.5,29.09,North,0,3.1,6.5,74,0.00,,,0.00,WUHU216WMR100,2013-02-06 11:11:00,
2013-02-06 06:16:00,29.7,22.8,29.09,WNW,292,3.8,5.6,75,0.00,,,0.00,WUHU216WMR100,2013-02-06 11:16:00,
2013-02-06 06:21:00,29.7,22.5,29.09,NW,315,2.2,5.6,74,0.00,,,0.00,WUHU216WMR100,2013-02-06 11:21:00,
2013-02-06 06:26:00,29.7,22.8,29.09,WNW,292,2.7,5.4,75,0.00,,,0.00,WUHU216WMR100,2013-02-06 11:26:00,
2013-02-06 06:31:00,29.7,22.5,29.09,WNW,292,2.2,3.8,74,0.00,,,0.00,WUHU216WMR100,2013-02-06 11:31:00,
2013-02-06 06:37:00,29.5,22.6,29.09,WNW,292,1.3,4.0,75,0.00,,,0.00,WUHU216WMR100,2013-02-06 11:37:00,
2013-02-06 06:42:00,29.7,22.5,29.09,WNW,292,2.2,5.8,74,0.00,,,0.00,WUHU216WMR100,2013-02-06 11:42:00,
2013-02-06 06:47:00,29.5,22.3,29.09,WNW,292,2.2,5.8,74,0.00,,,0.00,WUHU216WMR100,2013-02-06 11:47:00,
2013-02-06 06:52:00,29.5,22.6,29.09,NW,315,3.1,4.0,75,0.00,,,0.00,WUHU216WMR100,2013-02-06 11:52:00,
2013-02-06 06:57:00,29.7,22.5,29.09,West,270,2.5,6.0,74,0.00,,,0.00,WUHU216WMR100,2013-02-06 11:57:00,
2013-02-06 07:02:00,29.5,22.6,29.09,WSW,247,2.2,6.0,75,0.00,,,0.00,WUHU216WMR100,2013-02-06 12:02:00,
2013-02-06 07:07:00,29.5,22.6,29.12,NNW,337,2.2,3.8,75,0.00,,,0.00,WUHU216WMR100,2013-02-06 12:07:00,
2013-02-06 07:12:00,29.5,22.6,29.12,NW,315,3.1,4.3,75,0.00,,,0.00,WUHU216WMR100,2013-02-06 12:12:00,
2013-02-06 07:17:00,29.7,22.8,29.12,WNW,292,3.4,5.4,75,0.00,,,0.00,WUHU216WMR100,2013-02-06 12:17:00,
2013-02-06 07:22:00,29.7,22.8,29.15,WSW,247,2.2,5.8,75,0.00,,,0.00,WUHU216WMR100,2013-02-06 12:22:00,
2013-02-06 07:29:00,29.7,22.5,29.15,NW,315,3.4,7.6,74,0.00,,,0.00,WUHU216WMR100,2013-02-06 12:29:00,
2013-02-06 07:34:00,29.5,20.6,29.15,NNW,337,5.4,11.0,69,0.00,,,0.00,WUHU216WMR100,2013-02-06 12:34:00,
2013-02-06 07:40:00,29.3,19.1,29.15,NNW,337,4.7,11.0,65,0.00,,,0.00,WUHU216WMR100,2013-02-06 12:40:00,
2013-02-06 07:45:00,29.1,17.8,29.15,WNW,292,3.1,7.2,62,0.00,,,0.00,WUHU216WMR100,2013-02-06 12:45:00,
2013-02-06 07:50:00,28.9,17.9,29.15,WNW,292,4.0,7.2,63,0.00,,,0.00,WUHU216WMR100,2013-02-06 12:50:00,
2013-02-06 07:55:00,28.9,16.8,29.15,North,0,5.4,7.4,60,0.00,,,0.00,WUHU216WMR100,2013-02-06 12:55:00,
2013-02-06 08:00:00,28.8,16.3,29.15,NNW,337,6.0,7.4,59,0.00,,,0.00,WUHU216WMR100,2013-02-06 13:00:00,
2013-02-06 08:05:00,28.8,15.9,29.15,North,0,5.6,8.7,58,0.00,,,0.00,WUHU216WMR100,2013-02-06 13:05:00,
2013-02-06 08:10:00,28.8,15.9,29.15,NNW,337,4.9,8.7,58,0.00,,,0.00,WUHU216WMR100,2013-02-06 13:10:00,
2013-02-06 08:15:00,28.8,15.1,29.15,North,0,6.5,7.6,56,0.00,,,0.00,WUHU216WMR100,2013-02-06 13:15:00,
2013-02-06 08:20:00,28.8,15.1,29.18,NNW,337,4.9,9.2,56,0.00,,,0.00,WUHU216WMR100,2013-02-06 13:20:00,
2013-02-06 08:25:00,28.8,15.5,29.18,NNW,337,3.4,9.2,57,0.00,,,0.00,WUHU216WMR100,2013-02-06 13:25:00,
2013-02-06 08:30:00,28.9,15.2,29.18,NNW,337,4.5,9.6,56,0.00,,,0.00,WUHU216WMR100,2013-02-06 13:30:00,
2013-02-06 08:35:00,29.1,15.4,29.18,NW,315,4.3,9.6,56,0.00,,,0.00,WUHU216WMR100,2013-02-06 13:35:00,
2013-02-06 08:40:00,29.1,15.4,29.18,WNW,292,5.4,6.3,56,0.00,,,0.00,WUHU216WMR100,2013-02-06 13:40:00,
2013-02-06 08:45:00,29.3,15.5,29.18,NNW,337,4.7,8.9,56,0.00,,,0.00,WUHU216WMR100,2013-02-06 13:45:00,
2013-02-06 08:50:00,29.7,15.9,29.18,North,0,3.1,8.9,56,0.00,,,0.00,WUHU216WMR100,2013-02-06 13:50:00,
2013-02-06 08:55:00,29.5,16.2,29.18,NNW,337,6.5,8.9,57,0.00,,,0.00,WUHU216WMR100,2013-02-06 13:55:00,
2013-02-06 09:00:00,29.7,16.7,29.18,NNW,337,4.3,13.0,58,0.00,,,0.00,WUHU216WMR100,2013-02-06 14:00:00,
2013-02-06 09:05:00,30.0,17.0,29.18,NNE,22,4.0,13.0,58,0.00,,,0.00,WUHU216WMR100,2013-02-06 14:05:00,
2013-02-06 09:11:00,29.5,17.0,29.18,North,0,7.6,9.8,59,0.00,,,0.00,WUHU216WMR100,2013-02-06 14:11:00,
2013-02-06 09:16:00,30.0,17.4,29.18,NNE,22,3.6,8.1,59,0.00,,,0.00,WUHU216WMR100,2013-02-06 14:16:00,
2013-02-06 09:22:00,29.7,17.2,29.18,North,0,4.5,8.7,59,0.00,,,0.00,WUHU216WMR100,2013-02-06 14:22:00,
2013-02-06 09:27:00,30.0,17.4,29.18,WNW,292,4.3,8.7,59,0.00,,,0.00,WUHU216WMR100,2013-02-06 14:27:00,
2013-02-06 09:32:00,30.6,18.0,29.18,NNW,337,3.4,6.3,59,0.00,,,0.00,WUHU216WMR100,2013-02-06 14:32:00,
2013-02-06 09:37:00,31.3,18.7,29.18,NNE,22,2.5,5.8,59,0.00,,,0.00,WUHU216WMR100,2013-02-06 14:37:00,
2013-02-06 09:42:00,31.3,17.8,29.18,NNE,22,3.8,5.8,57,0.00,,,0.00,WUHU216WMR100,2013-02-06 14:42:00,
2013-02-06 09:47:00,31.1,17.2,29.18,SE,135,4.0,8.5,56,0.00,,,0.00,WUHU216WMR100,2013-02-06 14:47:00,
2013-02-06 09:52:00,30.9,17.0,29.21,North,0,6.0,8.9,56,0.00,,,0.00,WUHU216WMR100,2013-02-06 14:52:00,
2013-02-06 09:57:00,30.9,16.6,29.21,NE,45,4.9,8.9,55,0.00,,,0.00,WUHU216WMR100,2013-02-06 14:57:00,
2013-02-06 10:02:00,31.1,16.8,29.21,NNE,22,4.9,7.4,55,0.00,,,0.00,WUHU216WMR100,2013-02-06 15:02:00,
2013-02-06 10:07:00,32.2,17.8,29.21,NNE,22,4.0,6.0,55,0.00,,,0.00,WUHU216WMR100,2013-02-06 15:07:00,
2013-02-06 10:12:00,32.7,17.9,29.21,NNE,22,2.7,6.5,54,0.00,,,0.00,WUHU216WMR100,2013-02-06 15:12:00,
2013-02-06 10:17:00,32.2,17.0,29.21,NW,315,3.6,8.5,53,0.00,,,0.00,WUHU216WMR100,2013-02-06 15:17:00,
2013-02-06 10:22:00,32.7,17.4,29.21,NE,45,3.4,8.5,53,0.00,,,0.00,WUHU216WMR100,2013-02-06 15:22:00,
2013-02-06 10:27:00,33.3,17.5,29.21,NW,315,2.7,8.5,52,0.00,,,0.00,WUHU216WMR100,2013-02-06 15:27:00,
2013-02-06 10:32:00,33.4,17.2,29.21,North,0,4.0,6.3,51,0.00,,,0.00,WUHU216WMR100,2013-02-06 15:32:00,
2013-02-06 10:37:00,34.0,17.2,29.21,North,0,3.4,6.5,50,0.00,,,0.00,WUHU216WMR100,2013-02-06 15:37:00,
2013-02-06 10:42:00,34.9,17.6,29.21,North,0,3.4,8.5,49,0.00,,,0.00,WUHU216WMR100,2013-02-06 15:42:00,
2013-02-06 10:47:00,35.8,15.9,29.21,NNE,22,4.7,8.7,44,0.00,,,0.00,WUHU216WMR100,2013-02-06 15:47:00,
2013-02-06 10:52:00,35.2,15.8,29.23,North,0,2.0,8.7,45,0.00,,,0.00,WUHU216WMR100,2013-02-06 15:52:00,
2013-02-06 10:57:00,34.7,15.4,29.23,NNW,337,3.4,7.2,45,0.00,,,0.00,WUHU216WMR100,2013-02-06 15:57:00,
2013-02-06 11:02:00,34.9,16.1,29.23,NNW,337,2.9,8.5,46,0.00,,,0.00,WUHU216WMR100,2013-02-06 16:02:00,
2013-02-06 11:07:00,34.3,15.0,29.23,NNE,22,4.9,10.1,45,0.00,,,0.00,WUHU216WMR100,2013-02-06 16:07:00,
2013-02-06 11:12:00,34.5,14.7,29.23,NE,45,4.3,10.1,44,0.00,,,0.00,WUHU216WMR100,2013-02-06 16:12:00,
2013-02-06 11:17:00,34.5,14.7,29.23,NNE,22,4.9,7.4,44,0.00,,,0.00,WUHU216WMR100,2013-02-06 16:17:00,
2013-02-06 11:22:00,35.4,14.9,29.23,NNE,22,3.1,7.4,43,0.00,,,0.00,WUHU216WMR100,2013-02-06 16:22:00,
2013-02-06 11:27:00,34.3,13.4,29.23,North,0,5.4,8.7,42,0.00,,,0.00,WUHU216WMR100,2013-02-06 16:27:00,
2013-02-06 11:32:00,36.0,15.5,29.23,WNW,292,2.9,8.7,43,0.00,,,0.00,WUHU216WMR100,2013-02-06 16:32:00,
2013-02-06 11:37:00,35.4,14.4,29.23,West,270,4.0,7.4,42,0.00,,,0.00,WUHU216WMR100,2013-02-06 16:37:00,
2013-02-06 11:42:00,36.5,15.4,29.23,West,270,3.1,6.3,42,0.00,,,0.00,WUHU216WMR100,2013-02-06 16:42:00,
2013-02-06 11:47:00,40.5,19.0,29.23,NNW,337,2.7,4.9,42,0.00,,,0.00,WUHU216WMR100,2013-02-06 16:47:00,
2013-02-06 11:52:00,42.4,19.0,29.21,WNW,292,2.0,4.9,39,0.00,,,0.00,WUHU216WMR100,2013-02-06 16:52:00,
2013-02-06 11:57:00,39.7,15.9,29.21,WNW,292,2.0,6.0,38,0.00,,,0.00,WUHU216WMR100,2013-02-06 16:57:00,
2013-02-06 12:02:00,41.5,18.2,29.21,NNW,337,2.0,6.0,39,0.00,,,0.00,WUHU216WMR100,2013-02-06 17:02:00,
2013-02-06 12:07:00,44.6,20.3,29.23,North,0,1.3,5.8,38,0.00,,,0.00,WUHU216WMR100,2013-02-06 17:07:00,
2013-02-06 12:12:00,45.1,20.1,29.23,NNW,337,1.3,5.8,37,0.00,,,0.00,WUHU216WMR100,2013-02-06 17:12:00,
2013-02-06 12:17:00,43.7,16.2,29.23,North,0,3.6,4.3,33,0.00,,,0.00,WUHU216WMR100,2013-02-06 17:17:00,
2013-02-06 12:22:00,47.7,19.0,29.23,North,0,2.0,4.3,32,0.00,,,0.00,WUHU216WMR100,2013-02-06 17:22:00,
2013-02-06 12:28:00,42.1,14.1,29.23,NE,45,2.5,6.3,32,0.00,,,0.00,WUHU216WMR100,2013-02-06 17:28:00,
2013-02-06 12:33:00,38.5,10.2,29.23,NNW,337,4.5,6.9,31,0.00,,,0.00,WUHU216WMR100,2013-02-06 17:33:00,
2013-02-06 12:38:00,40.3,13.2,29.21,NNW,337,0.0,6.9,33,0.00,,,0.00,WUHU216WMR100,2013-02-06 17:38:00,
2013-02-06 12:43:00,42.8,14.0,29.21,NNW,337,4.5,5.8,31,0.00,,,0.00,WUHU216WMR100,2013-02-06 17:43:00,
2013-02-06 12:48:00,45.3,16.2,29.21,NNW,337,3.1,5.8,31,0.00,,,0.00,WUHU216WMR100,2013-02-06 17:48:00,
2013-02-06 12:53:00,45.7,15.8,29.21,West,270,2.2,6.3,30,0.00,,,0.00,WUHU216WMR100,2013-02-06 17:53:00,
2013-02-06 12:58:00,45.5,15.6,29.21,WSW,247,3.1,6.3,30,0.00,,,0.00,WUHU216WMR100,2013-02-06 17:58:00,
2013-02-06 13:03:00,47.3,16.4,29.21,NNW,337,2.0,4.3,29,0.00,,,0.00,WUHU216WMR100,2013-02-06 18:03:00,
2013-02-06 13:10:00,47.3,16.4,29.23,ENE,67,3.1,6.0,29,0.00,,,0.00,WUHU216WMR100,2013-02-06 18:10:00,
2013-02-06 13:15:00,48.0,17.0,29.23,NNW,337,0.9,6.0,29,0.00,,,0.00,WUHU216WMR100,2013-02-06 18:15:00,
2013-02-06 13:20:00,46.0,15.3,29.23,NNW,337,3.1,5.8,29,0.00,,,0.00,WUHU216WMR100,2013-02-06 18:20:00,
2013-02-06 13:25:00,44.8,14.2,29.23,WSW,247,2.9,5.8,29,0.00,,,0.00,WUHU216WMR100,2013-02-06 18:25:00,
2013-02-06 13:30:00,44.8,14.2,29.23,NNW,337,3.1,6.0,29,0.00,,,0.00,WUHU216WMR100,2013-02-06 18:30:00,
2013-02-06 13:35:00,44.6,14.1,29.23,SSW,202,2.5,6.0,29,0.00,,,0.00,WUHU216WMR100,2013-02-06 18:35:00,
2013-02-06 13:40:00,47.1,16.2,29.23,WNW,292,0.9,4.9,29,0.00,,,0.00,WUHU216WMR100,2013-02-06 18:40:00,
2013-02-06 13:45:00,47.3,15.6,29.23,North,0,3.1,6.3,28,0.00,,,0.00,WUHU216WMR100,2013-02-06 18:45:00,
2013-02-06 13:50:00,45.5,14.8,29.23,WNW,292,3.1,6.3,29,0.00,,,0.00,WUHU216WMR100,2013-02-06 18:50:00,
2013-02-06 13:55:00,46.0,15.3,29.23,NNE,22,2.9,6.3,29,0.00,,,0.00,WUHU216WMR100,2013-02-06 18:55:00,
2013-02-06 14:00:00,44.8,13.5,29.23,WNW,292,2.9,4.9,28,0.00,,,0.00,WUHU216WMR100,2013-02-06 19:00:00,
2013-02-06 14:05:00,46.2,15.5,29.23,WSW,247,2.5,4.9,29,0.00,,,0.00,WUHU216WMR100,2013-02-06 19:05:00,
2013-02-06 14:10:00,45.1,14.5,29.23,WSW,247,3.1,5.4,29,0.00,,,0.00,WUHU216WMR100,2013-02-06 19:10:00,
2013-02-06 14:15:00,44.4,13.9,29.23,NW,315,2.0,5.4,29,0.00,,,0.00,WUHU216WMR100,2013-02-06 19:15:00,
2013-02-06 14:20:00,43.5,13.1,29.23,WNW,292,1.1,4.3,29,0.00,,,0.00,WUHU216WMR100,2013-02-06 19:20:00,
2013-02-06 14:25:00,43.5,13.1,29.23,NNW,337,2.5,4.3,29,0.00,,,0.00,WUHU216WMR100,2013-02-06 19:25:00,
2013-02-06 14:30:00,42.6,12.3,29.23,WNW,292,3.4,5.4,29,0.00,,,0.00,WUHU216WMR100,2013-02-06 19:30:00,
2013-02-06 14:35:00,42.3,12.1,29.23,WSW,247,3.4,5.8,29,0.00,,,0.00,WUHU216WMR100,2013-02-06 19:35:00,
2013-02-06 14:40:00,43.2,12.8,29.23,ENE,67,2.0,5.8,29,0.00,,,0.00,WUHU216WMR100,2013-02-06 19:40:00,
2013-02-06 14:45:00,41.7,12.3,29.23,SSW,202,2.9,4.9,30,0.00,,,0.00,WUHU216WMR100,2013-02-06 19:45:00,
2013-02-06 14:50:00,41.2,11.9,29.23,WSW,247,2.7,4.0,30,0.04,,,0.04,WUHU216WMR100,2013-02-06 19:50:00,
2013-02-06 14:55:00,41.2,11.9,29.23,SSW,202,2.9,4.3,30,0.04,,,0.04,WUHU216WMR100,2013-02-06 19:55:00,
2013-02-06 15:00:00,40.5,11.3,29.23,WSW,247,3.4,4.7,30,0.04,,,0.04,WUHU216WMR100,2013-02-06 20:00:00,
2013-02-06 15:05:00,40.3,11.1,29.23,NNW,337,2.5,4.9,30,0.04,,,0.04,WUHU216WMR100,2013-02-06 20:05:00,
2013-02-06 15:10:00,41.7,13.0,29.23,West,270,1.1,4.9,31,0.04,,,0.04,WUHU216WMR100,2013-02-06 20:10:00,
2013-02-06 15:15:00,40.5,11.3,29.23,WSW,247,3.1,4.0,30,0.04,,,0.04,WUHU216WMR100,2013-02-06 20:15:00,
2013-02-06 15:20:00,40.8,12.2,29.23,NNW,337,1.6,4.0,31,0.04,,,0.04,WUHU216WMR100,2013-02-06 20:20:00,
2013-02-06 15:25:00,40.5,12.0,29.23,SSW,202,0.0,4.7,31,0.04,,,0.04,WUHU216WMR100,2013-02-06 20:25:00,
2013-02-06 15:30:00,39.7,11.3,29.23,WNW,292,2.9,4.7,31,0.04,,,0.04,WUHU216WMR100,2013-02-06 20:30:00,
2013-02-06 15:35:00,39.7,11.3,29.23,WSW,247,3.4,4.9,31,0.04,,,0.04,WUHU216WMR100,2013-02-06 20:35:00,
2013-02-06 15:40:00,39.7,11.3,29.23,WNW,292,1.6,4.9,31,0.04,,,0.04,WUHU216WMR100,2013-02-06 20:40:00,
2013-02-06 15:45:00,40.3,12.5,29.23,SSW,202,1.1,3.4,32,0.04,,,0.04,WUHU216WMR100,2013-02-06 20:45:00,
2013-02-06 15:50:00,40.3,12.5,29.23,North,0,0.9,2.9,32,0.00,,,0.04,WUHU216WMR100,2013-02-06 20:50:00,
2013-02-06 15:55:00,39.0,11.4,29.23,North,0,2.5,3.1,32,0.00,,,0.04,WUHU216WMR100,2013-02-06 20:55:00,
2013-02-06 16:00:00,39.4,11.7,29.23,North,0,2.0,3.1,32,0.00,,,0.04,WUHU216WMR100,2013-02-06 21:00:00,
2013-02-06 16:05:00,38.7,11.1,29.23,West,270,1.1,2.7,32,0.00,,,0.04,WUHU216WMR100,2013-02-06 21:05:00,
2013-02-06 16:10:00,37.9,10.4,29.23,NNW,337,2.5,2.7,32,0.00,,,0.04,WUHU216WMR100,2013-02-06 21:10:00,
2013-02-06 16:15:00,37.4,10.0,29.23,WNW,292,1.6,4.0,32,0.00,,,0.04,WUHU216WMR100,2013-02-06 21:15:00,
2013-02-06 16:20:00,37.4,10.0,29.23,WNW,292,0.0,4.0,32,0.00,,,0.04,WUHU216WMR100,2013-02-06 21:20:00,
2013-02-06 16:25:00,36.9,10.2,29.23,ESE,112,1.6,2.2,33,0.00,,,0.04,WUHU216WMR100,2013-02-06 21:25:00,
2013-02-06 16:30:00,35.8,9.2,29.23,SSW,202,1.6,3.1,33,0.00,,,0.04,WUHU216WMR100,2013-02-06 21:30:00,
2013-02-06 16:35:00,34.5,8.1,29.23,WNW,292,1.6,3.1,33,0.00,,,0.04,WUHU216WMR100,2013-02-06 21:35:00,
2013-02-06 16:40:00,33.8,8.1,29.23,West,270,0.0,2.9,34,0.00,,,0.04,WUHU216WMR100,2013-02-06 21:40:00,
2013-02-06 16:45:00,33.3,8.3,29.23,West,270,0.0,2.9,35,0.00,,,0.04,WUHU216WMR100,2013-02-06 21:45:00,
2013-02-06 16:50:00,32.7,8.4,29.26,South,180,2.7,3.1,36,0.00,,,0.04,WUHU216WMR100,2013-02-06 21:50:00,
2013-02-06 16:55:00,32.4,9.4,29.26,WSW,247,0.0,3.1,38,0.00,,,0.04,WUHU216WMR100,2013-02-06 21:55:00,
2013-02-06 17:00:00,32.2,10.4,29.26,WSW,247,0.0,2.5,40,0.00,,,0.04,WUHU216WMR100,2013-02-06 22:00:00,
2013-02-06 17:05:00,31.8,10.0,29.26,West,270,1.1,2.5,40,0.00,,,0.04,WUHU216WMR100,2013-02-06 22:05:00,
2013-02-06 17:10:00,31.8,10.6,29.26,NNW,337,0.0,2.0,41,0.00,,,0.04,WUHU216WMR100,2013-02-06 22:10:00,
2013-02-06 17:15:00,31.8,10.6,29.26,NNW,337,0.0,1.1,41,0.00,,,0.04,WUHU216WMR100,2013-02-06 22:15:00,
2013-02-06 17:20:00,31.3,10.1,29.23,SSE,157,1.3,1.6,41,0.00,,,0.04,WUHU216WMR100,2013-02-06 22:20:00,
2013-02-06 17:25:00,30.7,9.6,29.23,ESE,112,0.0,2.0,41,0.00,,,0.04,WUHU216WMR100,2013-02-06 22:25:00,
2013-02-06 17:30:00,30.2,9.1,29.23,WNW,292,1.6,2.0,41,0.00,,,0.04,WUHU216WMR100,2013-02-06 22:30:00,
2013-02-06 17:35:00,29.5,9.0,29.23,North,0,0.0,2.0,42,0.00,,,0.04,WUHU216WMR100,2013-02-06 22:35:00,
2013-02-06 17:40:00,28.8,8.4,29.23,North,0,0.0,1.6,42,0.00,,,0.04,WUHU216WMR100,2013-02-06 22:40:00,
2013-02-06 17:45:00,28.4,8.6,29.23,NNE,22,0.0,0.0,43,0.00,,,0.04,WUHU216WMR100,2013-02-06 22:45:00,
2013-02-06 17:50:00,27.9,8.1,29.23,NNE,22,0.0,0.0,43,0.00,,,0.04,WUHU216WMR100,2013-02-06 22:50:00,
2013-02-06 17:55:00,27.5,7.8,29.23,NNE,22,0.0,0.0,43,0.00,,,0.04,WUHU216WMR100,2013-02-06 22:55:00,
2013-02-06 18:00:00,27.0,7.8,29.23,NNE,22,0.0,0.0,44,0.00,,,0.04,WUHU216WMR100,2013-02-06 23:00:00,
2013-02-06 18:05:00,26.4,7.8,29.26,NNE,22,0.0,0.0,45,0.00,,,0.04,WUHU216WMR100,2013-02-06 23:05:00,
2013-02-06 18:10:00,25.7,7.1,29.26,NNE,22,0.0,0.0,45,0.00,,,0.04,WUHU216WMR100,2013-02-06 23:10:00,
2013-02-06 18:15:00,25.5,7.0,29.26,NNE,22,0.0,0.0,45,0.00,,,0.04,WUHU216WMR100,2013-02-06 23:15:00,
2013-02-06 18:20:00,25.9,7.8,29.26,NNE,22,0.0,0.0,46,0.00,,,0.04,WUHU216WMR100,2013-02-06 23:20:00,
2013-02-06 18:25:00,25.7,8.1,29.26,NNE,22,0.0,0.0,47,0.00,,,0.04,WUHU216WMR100,2013-02-06 23:25:00,
2013-02-06 18:30:00,25.0,8.0,29.26,NNE,22,0.0,0.0,48,0.00,,,0.04,WUHU216WMR100,2013-02-06 23:30:00,
2013-02-06 18:35:00,24.3,8.3,29.26,NNE,22,0.0,0.0,50,0.00,,,0.04,WUHU216WMR100,2013-02-06 23:35:00,
2013-02-06 18:40:00,23.9,7.4,29.26,NNE,22,0.0,0.0,49,0.00,,,0.04,WUHU216WMR100,2013-02-06 23:40:00,
2013-02-06 18:45:00,23.5,7.5,29.26,NNE,22,0.0,0.0,50,0.00,,,0.04,WUHU216WMR100,2013-02-06 23:45:00,
2013-02-06 18:50:00,23.2,8.1,29.26,NNE,22,0.0,0.0,52,0.00,,,0.04,WUHU216WMR100,2013-02-06 23:50:00,
2013-02-06 18:55:00,23.2,8.1,29.26,NNE,22,0.0,0.0,52,0.00,,,0.04,WUHU216WMR100,2013-02-06 23:55:00,
2013-02-06 19:00:00,23.0,8.4,29.26,NNE,22,0.0,0.0,53,0.00,,,0.04,WUHU216WMR100,2013-02-07 00:00:00,
2013-02-06 19:06:00,22.8,8.2,29.26,WSW,247,0.0,1.1,53,0.00,,,0.04,WUHU216WMR100,2013-02-07 00:06:00,
2013-02-06 19:11:00,22.8,8.6,29.26,West,270,0.0,2.0,54,0.00,,,0.04,WUHU216WMR100,2013-02-07 00:11:00,
2013-02-06 19:15:00,22.3,8.1,29.26,WNW,292,0.0,2.0,54,0.00,,,0.04,WUHU216WMR100,2013-02-07 00:15:00,
2013-02-06 19:21:00,21.7,7.6,29.26,NNW,337,0.0,0.0,54,0.00,,,0.04,WUHU216WMR100,2013-02-07 00:21:00,
2013-02-06 19:25:00,21.6,7.5,29.26,NNW,337,0.0,0.0,54,0.00,,,0.04,WUHU216WMR100,2013-02-07 00:25:00,
2013-02-06 19:30:00,21.6,7.9,29.26,NNW,337,0.0,0.0,55,0.00,,,0.04,WUHU216WMR100,2013-02-07 00:30:00,
2013-02-06 19:35:00,21.2,7.9,29.26,NNW,337,0.0,0.0,56,0.00,,,0.04,WUHU216WMR100,2013-02-07 00:35:00,
2013-02-06 19:40:00,21.0,7.8,29.26,WSW,247,0.0,0.0,56,0.00,,,0.04,WUHU216WMR100,2013-02-07 00:40:00,
2013-02-06 19:46:00,20.8,7.6,29.26,West,270,0.0,0.0,56,0.00,,,0.04,WUHU216WMR100,2013-02-07 00:46:00,
2013-02-06 19:51:00,20.5,7.3,29.29,West,270,0.0,0.0,56,0.00,,,0.04,WUHU216WMR100,2013-02-07 00:51:00,
2013-02-06 19:56:00,20.3,7.1,29.29,WNW,292,0.0,0.0,56,0.00,,,0.04,WUHU216WMR100,2013-02-07 00:56:00,
2013-02-06 20:01:00,19.9,7.1,29.29,NNW,337,0.0,0.0,57,0.00,,,0.04,WUHU216WMR100,2013-02-07 01:01:00,
2013-02-06 20:06:00,19.6,7.2,29.26,NNW,337,0.0,0.0,58,0.00,,,0.04,WUHU216WMR100,2013-02-07 01:06:00,
2013-02-06 20:11:00,19.4,7.4,29.26,NNW,337,0.0,0.0,59,0.00,,,0.04,WUHU216WMR100,2013-02-07 01:11:00,
2013-02-06 20:16:00,19.2,6.9,29.26,NNW,337,0.0,0.0,58,0.00,,,0.04,WUHU216WMR100,2013-02-07 01:16:00,
2013-02-06 20:21:00,19.6,7.6,29.26,NNW,337,0.0,0.0,59,0.00,,,0.04,WUHU216WMR100,2013-02-07 01:21:00,
2013-02-06 20:26:00,19.2,7.6,29.26,NNW,337,0.0,0.0,60,0.00,,,0.04,WUHU216WMR100,2013-02-07 01:26:00,
2013-02-06 20:31:00,19.0,7.4,29.26,NNW,337,0.0,0.0,60,0.00,,,0.04,WUHU216WMR100,2013-02-07 01:31:00,
2013-02-06 20:36:00,19.0,7.4,29.29,NNW,337,0.0,0.0,60,0.00,,,0.04,WUHU216WMR100,2013-02-07 01:36:00,
2013-02-06 20:41:00,18.7,7.5,29.29,NNW,337,0.0,0.0,61,0.00,,,0.04,WUHU216WMR100,2013-02-07 01:41:00,
2013-02-06 20:46:00,19.2,8.3,29.29,NNW,337,0.0,0.0,62,0.00,,,0.04,WUHU216WMR100,2013-02-07 01:46:00,
2013-02-06 20:51:00,19.4,8.9,29.26,North,0,0.0,0.0,63,0.00,,,0.04,WUHU216WMR100,2013-02-07 01:51:00,
2013-02-06 20:57:00,19.0,8.5,29.26,North,0,0.0,0.0,63,0.00,,,0.04,WUHU216WMR100,2013-02-07 01:57:00,
2013-02-06 21:02:00,18.7,8.2,29.26,North,0,0.0,0.0,63,0.00,,,0.04,WUHU216WMR100,2013-02-07 02:02:00,
2013-02-06 21:08:00,18.3,7.9,29.29,North,0,0.0,0.0,63,0.00,,,0.04,WUHU216WMR100,2013-02-07 02:08:00,
2013-02-06 21:13:00,18.1,7.7,29.29,North,0,0.0,0.0,63,0.00,,,0.04,WUHU216WMR100,2013-02-07 02:13:00,
2013-02-06 21:18:00,18.0,7.6,29.29,WNW,292,0.0,0.0,63,0.00,,,0.04,WUHU216WMR100,2013-02-07 02:18:00,
2013-02-06 21:23:00,17.8,7.4,29.29,NW,315,0.0,0.0,63,0.00,,,0.04,WUHU216WMR100,2013-02-07 02:23:00,
2013-02-06 21:28:00,17.6,8.2,29.29,ESE,112,0.0,0.0,66,0.00,,,0.04,WUHU216WMR100,2013-02-07 02:28:00,
2013-02-06 21:33:00,17.1,7.4,29.29,East,90,0.0,0.0,65,0.00,,,0.04,WUHU216WMR100,2013-02-07 02:33:00,
2013-02-06 21:38:00,16.9,7.2,29.26,East,90,0.0,0.0,65,0.00,,,0.04,WUHU216WMR100,2013-02-07 02:38:00,
2013-02-06 21:43:00,16.9,7.2,29.26,East,90,0.0,0.0,65,0.00,,,0.04,WUHU216WMR100,2013-02-07 02:43:00,
2013-02-06 21:48:00,17.4,8.7,29.26,North,0,0.0,0.0,68,0.00,,,0.04,WUHU216WMR100,2013-02-07 02:48:00,
2013-02-06 21:53:00,17.4,8.4,29.26,North,0,0.0,0.0,67,0.00,,,0.04,WUHU216WMR100,2013-02-07 02:53:00,
2013-02-06 21:58:00,17.4,8.7,29.26,NW,315,0.0,0.0,68,0.00,,,0.04,WUHU216WMR100,2013-02-07 02:58:00,
2013-02-06 22:03:00,16.9,7.9,29.26,NNW,337,0.0,0.0,67,0.00,,,0.04,WUHU216WMR100,2013-02-07 03:03:00,
2013-02-06 22:09:00,16.5,7.8,29.26,NNW,337,0.0,0.0,68,0.00,,,0.04,WUHU216WMR100,2013-02-07 03:09:00,
2013-02-06 22:14:00,16.7,8.7,29.26,North,0,0.0,0.0,70,0.00,,,0.04,WUHU216WMR100,2013-02-07 03:14:00,
2013-02-06 22:19:00,16.9,9.5,29.26,NE,45,0.0,0.0,72,0.00,,,0.04,WUHU216WMR100,2013-02-07 03:19:00,
2013-02-06 22:24:00,16.7,9.0,29.26,NE,45,0.0,0.0,71,0.00,,,0.04,WUHU216WMR100,2013-02-07 03:24:00,
2013-02-06 22:29:00,16.7,8.3,29.26,West,270,1.1,2.0,69,0.00,,,0.04,WUHU216WMR100,2013-02-07 03:29:00,
2013-02-06 22:34:00,16.5,8.2,29.23,West,270,0.0,2.0,69,0.00,,,0.04,WUHU216WMR100,2013-02-07 03:34:00,
2013-02-06 22:39:00,16.0,8.0,29.23,NNW,337,0.0,2.0,70,0.00,,,0.04,WUHU216WMR100,2013-02-07 03:39:00,
2013-02-06 22:44:00,15.8,7.5,29.23,NNW,337,0.0,0.0,69,0.00,,,0.04,WUHU216WMR100,2013-02-07 03:44:00,
2013-02-06 22:49:00,15.8,7.8,29.23,NNW,337,0.0,0.0,70,0.00,,,0.04,WUHU216WMR100,2013-02-07 03:49:00,
2013-02-06 22:55:00,16.0,8.0,29.23,NNW,337,0.0,0.0,70,0.00,,,0.04,WUHU216WMR100,2013-02-07 03:55:00,
2013-02-06 23:00:00,16.2,8.2,29.23,WSW,247,0.0,0.0,70,0.00,,,0.04,WUHU216WMR100,2013-02-07 04:00:00,
2013-02-06 23:05:00,16.5,8.8,29.23,WNW,292,0.0,1.6,71,0.00,,,0.04,WUHU216WMR100,2013-02-07 04:05:00,
2013-02-06 23:10:00,16.3,8.6,29.23,NNW,337,0.0,1.6,71,0.00,,,0.04,WUHU216WMR100,2013-02-07 04:10:00,
2013-02-06 23:15:00,16.2,8.5,29.23,ENE,67,0.0,0.0,71,0.00,,,0.04,WUHU216WMR100,2013-02-07 04:15:00,
2013-02-06 23:20:00,16.5,8.8,29.23,ENE,67,0.0,0.0,71,0.00,,,0.04,WUHU216WMR100,2013-02-07 04:20:00,
2013-02-06 23:25:00,16.5,8.8,29.23,ENE,67,0.0,0.0,71,0.00,,,0.04,WUHU216WMR100,2013-02-07 04:25:00,
2013-02-06 23:30:00,16.2,8.8,29.23,ENE,67,0.0,0.0,72,0.00,,,0.04,WUHU216WMR100,2013-02-07 04:30:00,
2013-02-06 23:35:00,16.0,8.6,29.23,ENE,67,0.0,0.0,72,0.00,,,0.04,WUHU216WMR100,2013-02-07 04:35:00,
2013-02-06 23:41:00,16.2,9.4,29.23,NE,45,0.0,0.0,74,0.00,,,0.04,WUHU216WMR100,2013-02-07 04:41:00,
2013-02-06 23:46:00,16.2,9.4,29.23,NNW,337,0.0,2.0,74,0.00,,,0.04,WUHU216WMR100,2013-02-07 04:46:00,
2013-02-06 23:51:00,16.0,9.2,29.23,NNW,337,0.0,2.0,74,0.00,,,0.04,WUHU216WMR100,2013-02-07 04:51:00,
2013-02-06 23:56:00,15.4,8.3,29.23,NNW,337,0.0,0.0,73,0.00,,,0.04,WUHU216WMR100,2013-02-07 04:56:00,